AEHF-3 (USA 246)

Last updated on Sun Jun 21 2026 00:03:05 GMT+0000 (Coordinated Universal Time)

1 39256U 13050A 26171.39475312 .00000023 00000+0 00000+0 0 9998 2 39256 5.3010 67.1548 0087858 188.0159 31.2798 1.00273393 45686
UTC large
Height (km)
Speed (km/s)
/
Latitude / Longitude
Inclination (degrees)
Orbital Period (minutes)
Azimuth
Elevation
Range (km)
Doppler Factor

Next 0 passes for location: London (51.5072 / 0.1276)

No passes found over London.
AEHF-3 (USA 246)